Tracking 31027 objects as of 19-Jul-2025
HD Live streaming from Space Station
objects crossing your sky now

STARLINK-1504

Track STARLINK-1504 now!
10-day predictions
STARLINK-1504 is classified as:


NORAD ID: 45746
Int'l Code: 2020-038S
Perigee: 480.7 km
Apogee: 482.4 km
Inclination: 53.0 °
Period: 94.1 minutes
Semi major axis: 6852 km
RCS: Unknown
Launch date: June 13, 2020
Source: United States (US)
Launch site: AIR FORCE EASTERN TEST RANGE (AFETR)
Your satellite tracking list
THORAD DELTA 1 DEB
Track 1 satellite(s)




NASA's NSSDC Master Catalog

Two Line Element Set (TLE):
1 45746U 20038S   25199.24990625  .00010624  00000-0  36726-3 0  9992
2 45746  53.0324 173.4889 0001174  73.0055 287.1073 15.30467866281351
Source of the keplerian elements: AFSPC